| time (UTC) | temp F | wind direction | speed MPH | gust MPH | rain 1hr in | rain 24hr in | rain mn in | humidity % | barometer mb |
| 20260508110100 | 60 | 46 | 8.0 | 13.0 | 0.00 | 0.38 | 0.06 | 67 | 1016.0 |
| 20260508104548 | 60 | 56 | 6.0 | 14.0 | 0.00 | 0.38 | 0.06 | 70 | 1016.1 |
| 20260508103058 | 62 | 71 | 6.0 | 14.0 | 0.00 | 0.38 | 0.06 | 71 | 1016.0 |
| 20260508101554 | 61 | 34 | 7.0 | 14.0 | 0.00 | 0.38 | 0.06 | 71 | 1015.9 |
| 20260508100047 | 60 | 77 | 5.0 | 12.0 | 0.00 | 0.38 | 0.06 | 74 | 1016.1 |
| 20260508094547 | 59 | 53 | 5.0 | 11.0 | 0.00 | 0.38 | 0.06 | 77 | 1016.1 |
| 20260508093047 | 57 | 5 | 5.0 | 11.0 | 0.00 | 0.38 | 0.06 | 82 | 1016.2 |
| 20260508091546 | 55 | 360 | 8.0 | 12.0 | 0.00 | 0.38 | 0.06 | 85 | 1016.2 |
| 20260508090043 | 56 | 28 | 8.0 | 13.0 | 0.00 | 0.37 | 0.05 | 81 | 1016.2 |
| 20260508084547 | 58 | 82 | 2.0 | 9.0 | 0.00 | 0.37 | 0.05 | 78 | 1016.2 |
| 20260508083049 | 58 | 129 | 6.0 | 9.0 | 0.00 | 0.37 | 0.05 | 80 | 1016.2 |
| 20260508081547 | 57 | 109 | 3.0 | 7.0 | 0.00 | 0.37 | 0.05 | 82 | 1016.2 |
| 20260508080048 | 55 | 192 | 2.0 | 5.0 | 0.00 | 0.37 | 0.05 | 87 | 1016.2 |
| 20260508074547 | 54 | 74 | 1.0 | 5.0 | 0.00 | 0.37 | 0.05 | 88 | 1016.1 |
| 20260508073043 | 54 | 109 | 0.0 | 4.0 | 0.00 | 0.37 | 0.05 | 89 | 1016.0 |
| 20260508071543 | 53 | 82 | 3.0 | 7.0 | 0.00 | 0.37 | 0.05 | 90 | 1015.9 |
| 20260508070053 | 53 | 93 | 3.0 | 7.0 | 0.00 | 0.37 | 0.05 | 91 | 1016.0 |
| 20260508064633 | 53 | 88 | 2.0 | 5.0 | 0.00 | 0.37 | 0.05 | 92 | 1015.8 |
| 20260508063057 | 52 | 167 | 1.0 | 3.0 | 0.00 | 0.37 | 0.05 | 92 | 1015.8 |
| 20260508061546 | 52 | 0 | 0.0 | 2.0 | 0.00 | 0.37 | 0.05 | 92 | 1015.7 |
| 20260508060048 | 51 | 0 | 0.0 | 3.0 | 0.00 | 0.37 | 0.05 | 92 | 1015.7 |
| 20260508054548 | 51 | 176 | 1.0 | 3.0 | 0.00 | 0.37 | 0.05 | 92 | 1015.5 |
| 20260508053055 | 50 | 0 | 1.0 | 3.0 | 0.00 | 0.37 | 0.05 | 92 | 1015.3 |
| 20260508051550 | 50 | 0 | 0.0 | 3.0 | 0.00 | 0.37 | 0.05 | 92 | 1015.3 |
| 20260508050049 | 50 | 175 | 0.0 | 4.0 | 0.00 | 0.37 | 0.05 | 92 | 1015.4 |
| 20260508044547 | 49 | 167 | 1.0 | 6.0 | 0.00 | 0.37 | 0.05 | 92 | 1015.2 |
| 20260508043058 | 49 | 286 | 1.0 | 3.0 | 0.00 | 0.37 | 0.05 | 92 | 1015.1 |
| 20260508041553 | 49 | 290 | 1.0 | 3.0 | 0.00 | 0.37 | 0.05 | 92 | 1015.2 |
| 20260508040051 | 48 | 290 | 1.0 | 5.0 | 0.00 | 0.37 | 0.05 | 92 | 1015.0 |
| 20260508034542 | 48 | 312 | 2.0 | 8.0 | 0.00 | 0.37 | 0.05 | 92 | 1015.0 |
| 20260508033040 | 49 | 255 | 3.0 | 7.0 | 0.00 | 0.37 | 0.05 | 92 | 1014.7 |
| 20260508031549 | 49 | 257 | 3.0 | 6.0 | 0.00 | 0.37 | 0.05 | 91 | 1014.6 |
| 20260508030047 | 50 | 215 | 3.0 | 6.0 | 0.00 | 0.37 | 0.05 | 92 | 1014.5 |
| 20260508024544 | 50 | 0 | 0.0 | 2.0 | 0.00 | 0.37 | 0.05 | 92 | 1014.3 |
| 20260508023043 | 50 | 0 | 0.0 | 2.0 | 0.00 | 0.37 | 0.05 | 92 | 1014.2 |
| 20260508021555 | 50 | 0 | 0.0 | 1.0 | 0.00 | 0.37 | 0.05 | 92 | 1014.2 |
| 20260508020049 | 50 | 0 | 0.0 | 1.0 | 0.00 | 0.37 | 0.05 | 92 | 1014.4 |
| 20260508014548 | 50 | 0 | 0.0 | 2.0 | 0.00 | 0.37 | 0.05 | 91 | 1014.3 |
| 20260508013053 | 50 | 0 | 0.0 | 1.0 | 0.00 | 0.37 | 0.05 | 91 | 1014.6 |
| 20260508011544 | 51 | 0 | 0.0 | 0.0 | 0.00 | 0.37 | 0.04 | 91 | 1014.6 |
| 20260508010050 | 50 | 0 | 0.0 | 0.0 | 0.00 | 0.37 | 0.04 | 91 | 1014.5 |
| 20260508004548 | 51 | 0 | 0.0 | 0.0 | 0.00 | 0.37 | 0.04 | 91 | 1014.3 |
| 20260508003044 | 51 | 298 | 1.0 | 2.0 | 0.00 | 0.37 | 0.04 | 91 | 1014.2 |
| 20260508001611 | 51 | 0 | 0.0 | 2.0 | 0.00 | 0.37 | 0.04 | 91 | 1014.4 |
| 20260508000048 | 51 | 0 | 0.0 | 2.0 | 0.00 | 0.37 | 0.04 | 91 | 1014.3 |
| 20260507234549 | 51 | 298 | 0.0 | 2.0 | 0.00 | 0.37 | 0.03 | 91 | 1014.5 |
| 20260507233050 | 51 | 0 | 0.0 | 1.0 | 0.02 | 0.37 | 0.03 | 91 | 1014.7 |
| 20260507231549 | 51 | 298 | 1.0 | 3.0 | 0.03 | 0.37 | 0.03 | 91 | 1014.9 |
| 20260507230048 | 51 | 299 | 2.0 | 3.0 | 0.03 | 0.37 | 0.03 | 91 | 1015.0 |
| 20260507224554 | 51 | 299 | 0.0 | 3.0 | 0.03 | 0.37 | 0.03 | 91 | 1014.9 |
| 20260507223048 | 51 | 305 | 1.0 | 3.0 | 0.01 | 0.36 | 0.01 | 91 | 1014.9 |
| 20260507221552 | 51 | 318 | 0.0 | 2.0 | 0.00 | 0.35 | 0.00 | 91 | 1014.8 |
| 20260507220052 | 51 | 0 | 0.0 | 1.0 | 0.00 | 0.34 | 0.00 | 91 | 1014.8 |
| 20260507214551 | 51 | 0 | 0.0 | 0.0 | 0.00 | 0.34 | 0.34 | 91 | 1014.7 |
| 20260507213048 | 51 | 0 | 0.0 | 1.0 | 0.00 | 0.34 | 0.34 | 91 | 1014.7 |
| 20260507211547 | 51 | 0 | 0.0 | 3.0 | 0.00 | 0.34 | 0.34 | 90 | 1014.7 |
| 20260507210045 | 51 | 0 | 0.0 | 0.0 | 0.01 | 0.34 | 0.34 | 90 | 1014.6 |
| 20260507204553 | 52 | 318 | 0.0 | 2.0 | 0.02 | 0.34 | 0.34 | 90 | 1014.6 |
| 20260507203045 | 52 | 0 | 0.0 | 2.0 | 0.02 | 0.33 | 0.33 | 90 | 1014.5 |
| 20260507201553 | 52 | 0 | 0.0 | 2.0 | 0.02 | 0.33 | 0.33 | 90 | 1014.3 |
| 20260507200045 | 52 | 0 | 0.0 | 2.0 | 0.01 | 0.33 | 0.33 | 90 | 1014.4 |
| 20260507194544 | 52 | 318 | 3.0 | 4.0 | 0.00 | 0.32 | 0.32 | 90 | 1014.4 |
| 20260507193047 | 52 | 36 | 0.0 | 2.0 | 0.00 | 0.31 | 0.31 | 90 | 1014.5 |
| 20260507191550 | 52 | 0 | 0.0 | 3.0 | 0.00 | 0.31 | 0.31 | 90 | 1014.2 |
| 20260507190052 | 52 | 49 | 1.0 | 3.0 | 0.02 | 0.31 | 0.31 | 90 | 1014.0 |
| 20260507184550 | 52 | 49 | 1.0 | 3.0 | 0.04 | 0.31 | 0.31 | 90 | 1014.0 |
| 20260507183051 | 53 | 49 | 2.0 | 6.0 | 0.05 | 0.30 | 0.30 | 90 | 1013.7 |
| 20260507181601 | 53 | 15 | 0.0 | 2.0 | 0.07 | 0.30 | 0.30 | 90 | 1013.8 |
| 20260507180043 | 53 | 15 | 1.0 | 3.0 | 0.07 | 0.29 | 0.29 | 90 | 1013.7 |
| 20260507174555 | 53 | 0 | 1.0 | 5.0 | 0.06 | 0.26 | 0.26 | 89 | 1013.6 |
| 20260507173048 | 53 | 257 | 2.0 | 5.0 | 0.04 | 0.25 | 0.25 | 89 | 1013.5 |
| 20260507171553 | 53 | 0 | 0.0 | 7.0 | 0.03 | 0.22 | 0.22 | 89 | 1013.4 |
| 20260507170050 | 53 | 302 | 2.0 | 5.0 | 0.07 | 0.21 | 0.21 | 89 | 1013.2 |
| 20260507164542 | 53 | 229 | 0.0 | 4.0 | 0.14 | 0.20 | 0.20 | 88 | 1013.2 |
| 20260507163043 | 53 | 230 | 5.0 | 7.0 | 0.15 | 0.20 | 0.20 | 88 | 1013.1 |
| 20260507161550 | 53 | 248 | 4.0 | 8.0 | 0.13 | 0.18 | 0.18 | 87 | 1013.0 |
| 20260507160047 | 54 | 242 | 9.0 | 13.0 | 0.08 | 0.13 | 0.13 | 86 | 1013.2 |
| 20260507154549 | 55 | 271 | 14.0 | 22.0 | 0.00 | 0.05 | 0.05 | 82 | 1013.0 |
| 20260507153052 | 58 | 255 | 13.0 | 17.0 | 0.00 | 0.04 | 0.04 | 79 | 1012.6 |
| 20260507151543 | 59 | 251 | 9.0 | 13.0 | 0.00 | 0.04 | 0.04 | 78 | 1012.6 |
| 20260507150043 | 59 | 238 | 9.0 | 13.0 | 0.00 | 0.04 | 0.04 | 79 | 1012.7 |
| 20260507144548 | 59 | 218 | 6.0 | 10.0 | 0.02 | 0.04 | 0.04 | 81 | 1012.6 |
| 20260507143048 | 58 | 196 | 3.0 | 8.0 | 0.02 | 0.04 | 0.04 | 81 | 1012.8 |
| 20260507141544 | 57 | 235 | 2.0 | 11.0 | 0.02 | 0.04 | 0.04 | 79 | 1012.7 |
| 20260507140049 | 59 | 219 | 7.0 | 15.0 | 0.01 | 0.03 | 0.03 | 74 | 1012.5 |
| 20260507134544 | 62 | 219 | 13.0 | 21.0 | 0.00 | 0.02 | 0.02 | 68 | 1012.5 |
| 20260507133052 | 63 | 247 | 11.0 | 15.0 | 0.00 | 0.02 | 0.02 | 67 | 1012.2 |
| 20260507131600 | 64 | 240 | 8.0 | 14.0 | 0.00 | 0.02 | 0.02 | 67 | 1012.4 |
| 20260507130105 | 63 | 245 | 13.0 | 20.0 | 0.00 | 0.02 | 0.02 | 69 | 1012.4 |
| 20260507124552 | 65 | 233 | 8.0 | 15.0 | 0.00 | 0.02 | 0.02 | 65 | 1012.3 |
| 20260507123043 | 65 | 128 | 9.0 | 16.0 | 0.00 | 0.02 | 0.02 | 63 | 1012.0 |
| 20260507121602 | 65 | 205 | 9.0 | 16.0 | 0.00 | 0.02 | 0.02 | 64 | 1012.2 |
| 20260507120055 | 65 | 188 | 8.0 | 15.0 | 0.00 | 0.02 | 0.02 | 65 | 1012.5 |
| 20260507114604 | 64 | 167 | 9.0 | 17.0 | 0.00 | 0.02 | 0.02 | 66 | 1012.3 |
| 20260507113045 | 65 | 159 | 9.0 | 17.0 | 0.00 | 0.02 | 0.02 | 65 | 1012.5 |
| 20260507111544 | 65 | 217 | 13.0 | 20.0 | 0.00 | 0.02 | 0.02 | 64 | 1012.5 |